Location: Val-d'Or
(48.1170°N, 77.7670°W)
Time: 21:37:05
(UTC-04:00)

ISS - Pass Details

Date: 22 May 2018
Orbit: 402 x 407 km, 51.6° (Epoch: 23 May)

Event Time Altitude Azimuth Distance (km) Brightness Sun altitude
Rises 03:15:45 0° 292° (WNW) 2,320 -0.1 -15.7°
Reaches altitude 10° 03:17:51 10° 289° (WNW) 1,458 -1.1 -15.6°
Maximum altitude 03:21:05 64° 208° (SSW) 449 -3.9 -15.3°
Drops below altitude 10° 03:24:18 10° 126° (SE) 1,452 -1.1 -15.0°
Sets 03:26:23 0° 123° (ESE) 2,308 0.0 -14.8°
